RH
35 29 24 20 17 16 17 19 22 23 23 25 25 25 23 19 18 18 18 19 19 20 22 22 22 23 23 22 21 22 22 21 20 20 21 21 20 21 23 26 22 21 23
34 30 25 21 18 16 17 20 22 23 24 25 26 24 21 20 19 19 20 21 22 23 24 24 24 24 23 23 23 23 22 21 20 19 19 20 21 21 18 18 17 15 14
30 30 25 22 19 19 18 19 21 22 24 26 27 23 22 21 20 20 22 23 25 26 26 26 26 26 25 24 24 23 22 23 23 21 21 24 23 20 20 18 18 17 17
31 28 25 23 21 20 20 20 22 23 25 26 25 21 22 22 22 23 24 25 27 28 28 28 28 28 27 27 26 24 23 22 21 21 20 19 20 22 20 17 17 16 15
28 24 22 21 21 22 22 22 23 25 28 28 25 26 28 25 24 25 26 28 29 30 30 29 29 29 29 29 27 25 24 23 21 20 20 20 19 18 20 22 20 16 16
27 24 22 22 23 24 24 25 26 28 31 28 27 29 28 26 27 28 28 30 31 31 31 31 31 32 32 31 28 26 25 24 23 23 22 22 21 21 21 22 21 23 22
24 22 23 24 25 25 25 26 27 30 31 26 26 27 28 29 29 29 31 32 33 34 34 34 34 35 33 31 29 28 27 26 25 24 23 22 21 20 20 20 20 24 24
29 23 22 24 26 26 27 27 28 31 28 26 27 29 31 31 31 32 33 34 36 36 35 36 37 35 34 33 30 28 28 26 25 24 22 21 20 20 20 20 22 21 22
32 29 26 25 26 27 27 28 30 31 28 29 30 31 31 32 33 34 36 38 38 37 37 37 37 36 36 33 30 29 27 25 24 23 22 21 20 21 21 22 23 24 24
31 31 28 26 27 29 30 31 31 30 30 31 32 33 33 35 36 37 39 40 39 38 38 39 39 38 36 32 30 27 26 25 23 22 22 22 21 21 21 22 23 24 24
31 29 29 29 30 32 34 33 32 33 33 35 34 35 36 37 39 41 42 40 39 39 41 41 40 38 34 31 29 27 25 24 24 23 23 21 21 22 22 23 24 24 25
34 31 31 32 35 37 35 34 36 37 38 38 38 39 40 41 43 43 42 40 41 42 43 42 40 36 32 30 28 26 26 25 24 22 22 21 22 22 22 23 23 23 28
34 34 35 37 38 37 36 38 41 42 42 42 42 42 44 44 45 43 42 42 44 45 44 42 38 33 32 30 28 27 26 25 24 23 24 24 24 24 24 25 27 30 36
34 35 36 38 39 39 40 43 45 46 45 45 45 46 46 46 44 43 44 46 46 46 43 40 35 33 32 30 28 27 26 25 24 25 26 26 26 27 28 30 34 40 45
36 37 38 40 42 44 46 47 49 48 47 47 47 47 47 45 44 46 48 48 47 45 41 36 35 34 31 29 28 27 26 26 26 27 27 28 29 31 35 41 44 50 55
38 39 42 44 46 47 48 50 50 49 50 49 48 46 45 46 48 50 49 48 45 41 38 37 35 32 30 29 27 29 29 29 28 28 29 31 33 36 41 46 52 60 65
40 43 45 47 48 49 49 50 51 51 50 48 46 46 47 51 51 50 48 45 42 40 39 35 33 31 29 28 29 30 30 30 30 30 32 35 39 42 45 51 57 64 70
44 46 47 49 48 47 49 51 52 52 49 46 46 49 51 52 51 49 46 43 41 39 36 33 32 30 28 28 29 31 30 30 32 34 35 37 40 48 56 57 62 68 68
46 48 49 46 45 48 51 53 53 49 48 49 50 51 52 51 49 47 44 43 39 36 33 32 31 29 29 29 29 32 30 30 33 36 40 42 46 53 60 61 58 59 63
49 49 47 45 49 52 54 53 50 49 50 51 51 51 51 50 48 46 44 40 37 34 33 30 30 30 30 30 31 33 33 33 36 39 44 50 58 63 64 62 63 64 66
48 44 46 52 54 53 51 49 49 49 51 52 52 53 51 50 49 44 40 38 36 34 31 30 30 30 30 31 32 35 38 40 42 45 50 59 64 65 64 64 66 69 70
45 49 54 55 52 50 49 48 50 52 53 53 54 53 52 48 43 40 38 37 34 31 30 30 29 29 32 35 36 41 45 49 51 54 59 62 64 65 65 65 72 76 77
55 58 57 52 50 49 50 51 53 53 55 55 54 51 45 42 41 39 37 33 32 31 30 29 30 32 36 38 41 45 50 56 59 62 66 65 63 64 65 68 72 73 75
56 53 51 50 51 52 53 53 53 57 57 53 47 44 42 41 39 36 34 32 32 32 32 32 35 37 39 42 47 53 58 61 65 68 68 63 63 64 67 69 73 77 80
51 49 49 50 52 52 53 57 59 56 50 46 44 43 41 38 35 33 32 32 33 36 37 39 41 42 45 50 56 60 63 66 70 70 67 65 66 68 71 74 78 81 83
51 50 51 53 58 64 62 57 53 49 47 46 43 40 37 34 33 32 30 34 37 39 42 45 46 49 53 58 61 65 68 71 75 73 71 71 72 71 73 74 75 80 84